FREGAT DEB, 46252

Orbit data source: Space-Track

FREGAT DEB, 46252 is space debris in LEO originally from a launch on Mon, 18 Jul 2011 UTC launched from the Tyuratam Missile And Space Complex (TTMTR). Debris objects in space refer to the collection of defunct objects orbiting the Earth. Examples of debris include non-operational satellites, rocket bodies, and fragments generated from explosions, collisions, or faulty payload assembly.

Loading next visibility...
Identifier
46252, 2011-037KN
Orbit
LEO
Country
Flag of CISCIS
Related business
Manufacturer
Lavochkin
Mission
Spacecraft
Bus & Motor
Unknown
Mass
Unknown
Launch date (UTC)
2011-07-18 (14 years ago)
Launch vehicle
Unknown
Launch site
Tyuratam Missile And Space Complex (TTMTR)
Object type
Payload
Rocket body
Debris
Shape & HBR
Unknown shape, 0.1 m
Radar Cross Section
Medium (>0.1 m² and <1 m²)

Expand to show TLE details & history
Last TLE update: 21 hours ago

TLE from 21 hours ago
0 FREGAT DEB
1 46252U 11037KN  25349.07711252  .00005822  00000-0  58237-1 0  9992
2 46252  50.9674 125.6954 1519328 188.3084 168.9575 10.47105943194420
Epoch: 2025-12-15T01:51Z
TLE epoch observation values (Epoch: 2025-12-15T01:51:02.521Z)
Latitude
-0.00001°
Longitude
13.95403°
Altitude
3,770.01 km
Speed
5.78 km/s
True Right ascension
08h 22m 46s
True Declination
0° 00' 00"
Sunlit
Object was in daylight at epoch
Visualization orbit readout
Latitude
Unknown
Longitude
Unknown
Altitude
Unknown
Speed
Unknown
Apparent Right ascension
Unknown
Apparent Declination
Unknown
Sunlit
N/A
Visualization observer readout
Local Sidereal Time
21:17:23
Azimuth
Unknown
Elevation
Unknown
Doppler factor
Unknown
Orbital elements
Apogee altitude
3,788.866 km
Perigee altitude
1,106.937 km
Semi-major axis
8,826.039 km
Eccentricity
0.15193
Inclination
50.9674°
RAAN
125.6954°
Arg. of periapsis
188.3084°
True anomaly
171.76476°
Mean anomaly
168.9575°
Eccentric anomaly
170.40804°
Mean motion
2.61755 °/min
Orbital period
137.53 mins
BSTAR
0.058237
Loading maneuver chart data...
Computing Atmospheric mass density...
Loading historical data...
Loading historical data...
Loading historical data...
Loading historical data...
Loading historical data...
Loading historical data...
Loading historical data...

Documentation

Showing up to 5 results
|